Location: Utrecht
(52.0907°N, 5.1214°E)
Time: 23:07:44
(UTC+02:00)

KKS-1 - Pass Details

Date: 05 July 2022
Orbit: 635 x 648 km, 98.2° (Epoch: 11 August)

Event Time Altitude Azimuth Distance (km) Brightness Sun altitude
Rises 00:54:40 0° 7° (N) 2,980 ? -14.3°
Reaches altitude 10° 00:57:06 10° 357° (N) 2,063 ? -14.4°
Maximum altitude 01:00:59 30° 297° (WNW) 1,175 ? -14.5°
Drops below altitude 10° 01:04:51 10° 237° (WSW) 2,044 ? -14.6°
Enters shadow 01:06:14 - 230° (SW) 2,555 ? -14.6°
